Погода в Чириш-Шинерах

Россия / Чувашская Республика     55°34′30″N   46°46′45″E
темп.,
°C
ветер,
м/с
пор.,
м/с
влажн.,
%
обл.,
%
осадки,
мм/ч
давл.,
гПа
погр.,
м
25 мая, ср
ср2500:00+1зсз119061 0.0 100811
03:00−2сз229179 0.0 100915
06:00+2сз258562 0.0 1010209
09:00+7сз466046 0.0 10101424
12:00+8сз466091 0.2 10101316
15:00+9зсз576799 1.3 10111414
18:00+8зсз487294 0.8 1011853
21:00+3з379661 0.9 1013161
26 мая, чт
чт2600:00+2юз389557 0.0 1013203
03:00+1юз389469 0.0 1013149
06:00+4юз378396 0.0 1013235
09:00+8юз5778100 0.1 10121016
12:00+10юз71072100 0.4 10111475
15:00+8зюз4988100 1.1 10111188
18:00+12юз367353 0.0 1009836
21:00+7ююв3895100 0.0 1008120
27 мая, пт
пт2700:00+9ю3798100 0.6 1005183
03:00+9ююв51198100 3.9 1003410
06:00+10ююв6139799 3.9 999797
09:00+10ю71395100 4.4 998963
12:00+10ююз61194100 0.5 997957
15:00+10ююз61395100 1.1 998880
18:00+9юз61297100 1.3 998695
21:00+9зюз61197100 1.6 1001798
28 мая, сб
сб2800:00+9зюз5129693 0.2 1003627
03:00+8ююз4119866 0.2 1004351
06:00+10ююз51094100 0.0 1005427
09:00+11ююз51093100 1.3 10041180
12:00+11ююз71595100 0.8 10031244
15:00+14юз814872 1.3 10031230
18:00+14зюз5117620 0.4 10051175
21:00+10юз4128365 0.4 1008349
29 мая, вс
вс2900:00+9юз5148114 0.0 1010388
03:00+8юз51389100 0.0 1012409
06:00+10юз41183100 0.0 1013492
09:00+13юз61171100 0.0 10141368
12:00+15юз7105795 0.1 10151999
15:00+14юз7970100 0.6 10161179
18:00+13юз5108296 0.6 1018719
21:00+9ююз3995100 0.7 1020191